Regional Weather Roundup
Issued by NWS

Home | Current Version | Previous Version | Graphics & Text | Print | Product List | Glossary On
Versions: 1 2 3 4 5 6 7 8 9 10 11 12 13 14 15 16 17 18 19 20 21 22 23 24 25 26 27
000
ASUS45 KSLC 120210
RWRUT

UTAH REGIONAL WEATHER ROUNDUP
NATIONAL WEATHER SERVICE SALT LAKE CITY UT
700 PM MST MON DEC 11 2017

UTZ001>011-023>025-120300-

NORTHERN UTAH

CITY           SKY/WX    TMP DP  RH WIND       PRES   REMARKS
BRIGHAM CITY   CLEAR     27  23  86 CALM      30.59R
HILL AFB       HAZE      25  25  97 SW3       30.55S VSB 1
LOGAN          CLEAR     21  17  84 CALM      30.57S
OGDEN          PTCLDY    25  22  88 S5        30.56R FOG     WCI  19
SALT LAKE CITY FOG       27  26  96 CALM      30.58S VSB 1/4
TOOELE VALLEY  FOG       27  25  93 CALM      30.59R VSB 3/4
WENDOVER       PTCLDY    24  17  74 CALM      30.59R
HEBER CITY       N/A     21  12  68 CALM      30.51R
WEST JORDAN    CLOUDY    23  23 100 CALM      30.57R VSB 1/4

$$

UTZ011>015-024>027-120300-

CENTRAL/NORTHEAST UTAH

CITY           SKY/WX    TMP DP  RH WIND       PRES   REMARKS
PROVO AIRPORT  CLEAR     26  24  92 NW6       30.56R WCI  19
MOAB/CANYONLAN MOCLDY    27   1  32 SW3       30.46S
DELTA          PTCLDY    27  14  59 CALM      30.55R
PRICE          PTCLDY    35  -1  21 NW5       30.47R WCI  31
ROOSEVELT      CLOUDY    23   7  50 CALM      30.54R
VERNAL         CLOUDY    25   8  48 W3        30.51R

$$

UTZ013>016-019>022-027-120300-

SOUTHERN UTAH

CITY           SKY/WX    TMP DP  RH WIND       PRES   REMARKS
BRYCE CANYON   CLEAR     24 -14  18 W7        30.51R WCI  16
CEDAR CITY     PTCLDY    28   9  44 S6        30.49R WCI  22
MILFORD        PTCLDY    24  11  57 N5        30.52R WCI  18
ST GEORGE      CLEAR     44   3  18 CALM      30.40R
HANKSVILLE     MOCLDY    34   3  27 CALM      30.49R
BLANDING         N/A     33  -1  23 CALM      30.49S

$$

REGIONAL REPORTS     COLORADO/ARIZONA

CITY           SKY/WX    TMP DP  RH WIND       PRES   REMARKS
CRAIG, CO      CLOUDY    17  12  80 CALM      30.52R
GRAND JUNCTION CLOUDY    30   0  27 CALM      30.46R
RIFLE, CO      CLOUDY    30   3  31 SE5       30.48R WCI  25
MONTROSE, CO   CLOUDY    27   1  32 S8        30.50R WCI  19
CORTEZ, CO     CLOUDY    23   0  36 NE9       30.43R WCI  13
COLORADO CITY    N/A     28  -8  20 CALM      30.44S
PAGE, AZ       PTCLDY    37  14  38 CALM      30.44R
GRAND CANYON   PTCLDY    25 -17  15 NE3       30.46R
KINGMAN, AZ    PTCLDY    39  -1  18 E10       30.34R WCI  32
FLAGSTAFF, AZ  PTCLDY    27  -9  20 CALM      30.45R

$$

REGIONAL REPORTS    NEVADA/IDAHO/WYOMING

CITY           SKY/WX    TMP DP  RH WIND       PRES   REMARKS
LAS VEGAS, NV  CLEAR     56   2  11 SW7       30.32R
ELY, NY        PTCLDY    19  -7  31 S7        30.52R WCI  10
ELKO, NV       PTCLDY    24  18  77 CALM      30.52R
POCATELLO, ID  CLOUDY    20  15  81 W3        30.56R
BURLEY, ID     CLEAR     25  20  81 W5        30.55R WCI  19
FORT BRIDGER,    N/A     41   7  24 W10       30.54R
EVANSTON, WY   CLOUDY    38  12  34 N3        30.53R
ROCK SPRINGS,  CLOUDY    33   8  35 NE7       30.48R WCI  27

$$




USA.gov is the U.S. government's official web portal to all federal, state and local government web resources and services.